Time,TemperatureF,DewpointF,PressureIn,WindDirection,WindDirectionDegrees,WindSpeedMPH,WindSpeedGustMPH,Humidity,HourlyPrecipIn,Conditions,Clouds,dailyrainin,SoftwareType,DateUTC
2013-02-13 08:57:00,70.8,67.1,29.98,WSW,240,0.0,0.0,88,0.00,,SKC,0.00,VWS V14.01,2013-02-13 13:57:00,
2013-02-13 08:58:00,75.5,72.7,29.98,SSE,153,5.0,5.0,91,0.00,,SKC,0.00,VWS V14.01,2013-02-13 13:58:00,
2013-02-13 09:03:00,75.6,72.5,29.99,South,175,7.0,10.0,90,0.00,,SKC,0.00,VWS V14.01,2013-02-13 14:03:00,
2013-02-13 09:08:00,75.9,72.8,29.99,SSE,152,8.0,15.0,90,0.00,,SKC,0.00,VWS V14.01,2013-02-13 14:08:00,
2013-02-13 09:13:00,76.1,72.6,29.99,SSE,150,7.0,15.0,89,0.00,,SKC,0.00,VWS V14.01,2013-02-13 14:13:00,
2013-02-13 09:18:00,76.3,72.5,29.99,ESE,108,8.0,15.0,88,0.00,,SKC,0.00,VWS V14.01,2013-02-13 14:18:00,
2013-02-13 09:23:00,76.4,72.6,29.99,South,186,7.0,15.0,88,0.00,,SKC,0.00,VWS V14.01,2013-02-13 14:23:00,
2013-02-13 09:28:00,76.5,72.7,29.99,South,169,2.0,15.0,88,0.00,,SKC,0.00,VWS V14.01,2013-02-13 14:28:00,
2013-02-13 09:33:00,76.6,72.4,29.99,SE,136,8.0,14.0,87,0.00,,SKC,0.00,VWS V14.01,2013-02-13 14:33:00,
2013-02-13 09:38:00,77.3,72.8,29.99,SSE,167,10.0,14.0,86,0.00,,SKC,0.00,VWS V14.01,2013-02-13 14:38:00,
2013-02-13 09:43:00,77.9,72.7,29.99,SSE,157,7.0,14.0,84,0.00,,SKC,0.00,VWS V14.01,2013-02-13 14:43:00,
2013-02-13 09:48:00,78.6,73.0,29.99,SSW,198,6.0,14.0,83,0.00,,SKC,0.00,VWS V14.01,2013-02-13 14:48:00,
2013-02-13 09:53:00,79.3,73.3,29.99,South,177,4.0,14.0,82,0.00,,SKC,0.00,VWS V14.01,2013-02-13 14:53:00,
2013-02-13 09:58:00,79.7,72.6,29.99,South,172,10.0,14.0,79,0.00,,SKC,0.00,VWS V14.01,2013-02-13 14:58:00,
2013-02-13 10:03:00,79.8,72.3,29.99,SSW,200,8.0,10.0,78,0.00,,SKC,0.00,VWS V14.01,2013-02-13 15:03:00,
2013-02-13 10:08:00,80.3,72.1,29.99,SSE,152,6.0,10.0,76,0.00,,SKC,0.00,VWS V14.01,2013-02-13 15:08:00,
2013-02-13 10:13:00,80.7,71.2,29.99,SSE,160,7.0,7.0,73,0.00,,SKC,0.00,VWS V14.01,2013-02-13 15:13:00,
2013-02-13 10:18:00,80.7,70.8,29.99,SSE,157,7.0,15.0,72,0.00,,SKC,0.00,VWS V14.01,2013-02-13 15:18:00,
2013-02-13 10:23:00,81.1,71.2,29.99,SSE,153,6.0,15.0,72,0.00,,SKC,0.00,VWS V14.01,2013-02-13 15:23:00,
2013-02-13 10:28:00,81.3,70.6,29.99,SSE,158,6.0,15.0,70,0.00,,SKC,0.00,VWS V14.01,2013-02-13 15:28:00,
2013-02-13 10:33:00,81.6,71.7,29.99,South,173,7.0,11.0,72,0.00,,SKC,0.00,VWS V14.01,2013-02-13 15:33:00,
2013-02-13 10:38:00,81.5,71.2,29.99,SE,136,9.0,15.0,71,0.00,,SKC,0.00,VWS V14.01,2013-02-13 15:38:00,
2013-02-13 10:43:00,81.3,71.0,29.99,SW,226,9.0,15.0,71,0.00,,SKC,0.00,VWS V14.01,2013-02-13 15:43:00,
2013-02-13 10:48:00,81.3,71.8,29.99,SSW,213,8.0,15.0,73,0.00,,SKC,0.00,VWS V14.01,2013-02-13 15:48:00,
2013-02-13 10:53:00,81.8,71.5,29.99,SSE,156,11.0,15.0,71,0.00,,SKC,0.00,VWS V14.01,2013-02-13 15:53:00,
2013-02-13 10:58:00,81.7,71.8,29.99,SSE,164,8.0,16.0,72,0.00,,SKC,0.00,VWS V14.01,2013-02-13 15:58:00,
2013-02-13 11:03:00,81.5,72.0,29.98,SSW,192,6.0,16.0,73,0.00,,SKC,0.00,VWS V14.01,2013-02-13 16:03:00,
2013-02-13 11:08:00,81.7,72.2,29.98,SSW,196,4.0,16.0,73,0.00,,SKC,0.00,VWS V14.01,2013-02-13 16:08:00,
2013-02-13 11:13:00,81.7,71.8,29.98,SW,215,8.0,16.0,72,0.00,,SKC,0.00,VWS V14.01,2013-02-13 16:13:00,
2013-02-13 11:18:00,81.4,71.9,29.98,SE,146,10.0,18.0,73,0.00,,SKC,0.00,VWS V14.01,2013-02-13 16:18:00,
2013-02-13 11:23:00,81.3,71.8,29.98,SE,146,9.0,20.0,73,0.00,,SKC,0.00,VWS V14.01,2013-02-13 16:23:00,
2013-02-13 11:28:00,81.2,71.3,29.98,SW,223,9.0,20.0,72,0.00,,SKC,0.00,VWS V14.01,2013-02-13 16:28:00,
2013-02-13 11:33:00,81.2,70.9,29.98,SE,146,14.0,16.0,71,0.00,,SKC,0.00,VWS V14.01,2013-02-13 16:33:00,
2013-02-13 11:38:00,81.4,71.1,29.97,South,175,7.0,16.0,71,0.00,,SKC,0.00,VWS V14.01,2013-02-13 16:38:00,
2013-02-13 11:43:00,81.5,71.2,29.97,SSW,210,14.0,18.0,71,0.00,,SKC,0.00,VWS V14.01,2013-02-13 16:43:00,
2013-02-13 11:48:00,81.3,71.4,29.97,SSE,159,8.0,18.0,72,0.00,,SKC,0.00,VWS V14.01,2013-02-13 16:48:00,
2013-02-13 11:53:00,82.0,72.1,29.97,SSW,204,9.0,18.0,72,0.00,,SKC,0.00,VWS V14.01,2013-02-13 16:53:00,
2013-02-13 11:58:00,82.1,71.8,29.97,SSW,206,12.0,18.0,71,0.00,,SKC,0.00,VWS V14.01,2013-02-13 16:58:00,
2013-02-13 12:03:00,81.7,71.8,29.97,SSW,195,10.0,19.0,72,0.00,,SKC,0.00,VWS V14.01,2013-02-13 17:03:00,
2013-02-13 12:08:00,82.1,71.8,29.97,SSW,213,11.0,19.0,71,0.00,,SKC,0.00,VWS V14.01,2013-02-13 17:08:00,
2013-02-13 12:13:00,81.6,71.7,29.96,SSE,165,10.0,19.0,72,0.00,,SKC,0.00,VWS V14.01,2013-02-13 17:13:00,
2013-02-13 12:18:00,81.6,72.5,29.96,SW,217,9.0,19.0,74,0.00,,SKC,0.00,VWS V14.01,2013-02-13 17:18:00,
2013-02-13 12:23:00,81.6,72.5,29.96,SW,221,6.0,19.0,74,0.00,,SKC,0.00,VWS V14.01,2013-02-13 17:23:00,
2013-02-13 12:28:00,81.7,72.2,29.96,SSW,211,5.0,19.0,73,0.00,,SKC,0.00,VWS V14.01,2013-02-13 17:28:00,
2013-02-13 12:33:00,82.2,72.7,29.96,SW,225,7.0,12.0,73,0.00,,SKC,0.00,VWS V14.01,2013-02-13 17:33:00,
2013-02-13 12:38:00,81.7,72.6,29.96,South,188,5.0,15.0,74,0.00,,SKC,0.00,VWS V14.01,2013-02-13 17:38:00,
2013-02-13 12:43:00,81.7,73.0,29.96,SSW,213,9.0,15.0,75,0.00,,SKC,0.00,VWS V14.01,2013-02-13 17:43:00,
2013-02-13 12:48:00,81.4,72.3,29.95,South,184,4.0,16.0,74,0.00,,SKC,0.00,VWS V14.01,2013-02-13 17:48:00,
2013-02-13 12:53:00,81.8,72.3,29.95,SSW,205,6.0,16.0,73,0.00,,SKC,0.00,VWS V14.01,2013-02-13 17:53:00,
2013-02-13 12:58:00,82.0,72.5,29.95,SSE,155,8.0,16.0,73,0.00,,SKC,0.00,VWS V14.01,2013-02-13 17:58:00,
2013-02-13 13:03:00,81.9,73.6,29.95,WSW,237,10.0,10.0,76,0.00,,SKC,0.00,VWS V14.01,2013-02-13 18:03:00,
2013-02-13 13:08:00,82.0,72.5,29.95,South,188,7.0,15.0,73,0.00,,SKC,0.00,VWS V14.01,2013-02-13 18:08:00,
2013-02-13 13:13:00,81.8,72.7,29.94,SW,233,9.0,15.0,74,0.00,,SKC,0.00,VWS V14.01,2013-02-13 18:13:00,
2013-02-13 13:18:00,81.8,72.3,29.94,SSE,160,8.0,18.0,73,0.00,,SKC,0.00,VWS V14.01,2013-02-13 18:18:00,
2013-02-13 13:23:00,81.7,72.2,29.94,SSW,207,10.0,18.0,73,0.00,,SKC,0.00,VWS V14.01,2013-02-13 18:23:00,
2013-02-13 13:28:00,81.8,71.9,29.94,SSE,160,8.0,19.0,72,0.00,,SKC,0.00,VWS V14.01,2013-02-13 18:28:00,
2013-02-13 13:33:00,81.7,72.2,29.94,SSE,153,4.0,14.0,73,0.00,,SKC,0.00,VWS V14.01,2013-02-13 18:33:00,
2013-02-13 13:38:00,81.6,71.7,29.93,SSW,200,7.0,14.0,72,0.00,,SKC,0.00,VWS V14.01,2013-02-13 18:38:00,
2013-02-13 13:43:00,81.6,72.1,29.93,SSE,158,6.0,19.0,73,0.00,,SKC,0.00,VWS V14.01,2013-02-13 18:43:00,
2013-02-13 13:48:00,81.3,71.4,29.93,SW,232,10.0,19.0,72,0.00,,SKC,0.00,VWS V14.01,2013-02-13 18:48:00,
2013-02-13 13:53:00,81.1,72.0,29.92,SSE,160,9.0,19.0,74,0.00,,SKC,0.00,VWS V14.01,2013-02-13 18:53:00,
2013-02-13 13:58:00,81.0,71.9,29.92,SSE,165,10.0,19.0,74,0.00,,SKC,0.00,VWS V14.01,2013-02-13 18:58:00,
2013-02-13 14:03:00,81.0,71.5,29.92,SSW,202,5.0,18.0,73,0.00,,SKC,0.00,VWS V14.01,2013-02-13 19:03:00,
2013-02-13 14:08:00,80.9,71.8,29.92,SW,225,12.0,18.0,74,0.00,,SKC,0.00,VWS V14.01,2013-02-13 19:08:00,
2013-02-13 14:13:00,80.9,71.8,29.92,WSW,253,6.0,18.0,74,0.00,,SKC,0.00,VWS V14.01,2013-02-13 19:13:00,
2013-02-13 14:18:00,81.0,71.5,29.92,SW,218,10.0,18.0,73,0.00,,SKC,0.00,VWS V14.01,2013-02-13 19:18:00,
2013-02-13 14:23:00,81.0,71.5,29.92,SSE,157,9.0,18.0,73,0.00,,SKC,0.00,VWS V14.01,2013-02-13 19:23:00,
2013-02-13 14:28:00,81.1,71.6,29.92,SSW,199,11.0,18.0,73,0.00,,SKC,0.00,VWS V14.01,2013-02-13 19:28:00,
2013-02-13 14:33:00,81.1,72.0,29.92,SSW,213,5.0,13.0,74,0.00,,SKC,0.00,VWS V14.01,2013-02-13 19:33:00,
2013-02-13 14:38:00,80.9,71.4,29.92,SE,141,13.0,16.0,73,0.00,,SKC,0.00,VWS V14.01,2013-02-13 19:38:00,
2013-02-13 14:43:00,80.8,72.1,29.91,South,175,9.0,16.0,75,0.00,,SKC,0.00,VWS V14.01,2013-02-13 19:43:00,
2013-02-13 14:48:00,81.1,72.0,29.91,South,179,7.0,16.0,74,0.00,,SKC,0.00,VWS V14.01,2013-02-13 19:48:00,
2013-02-13 14:53:00,81.0,72.3,29.91,South,186,8.0,16.0,75,0.00,,SKC,0.00,VWS V14.01,2013-02-13 19:53:00,
2013-02-13 14:58:00,81.4,72.7,29.91,SSW,205,5.0,16.0,75,0.00,,SKC,0.00,VWS V14.01,2013-02-13 19:58:00,
2013-02-13 15:03:00,81.1,72.0,29.91,South,171,4.0,11.0,74,0.00,,SKC,0.00,VWS V14.01,2013-02-13 20:03:00,
2013-02-13 15:08:00,81.0,71.9,29.91,SSW,195,5.0,15.0,74,0.00,,SKC,0.00,VWS V14.01,2013-02-13 20:08:00,
2013-02-13 15:13:00,80.7,72.0,29.91,South,182,6.0,15.0,75,0.00,,SKC,0.00,VWS V14.01,2013-02-13 20:13:00,
2013-02-13 15:18:00,80.6,72.3,29.91,South,188,9.0,16.0,76,0.00,,SKC,0.00,VWS V14.01,2013-02-13 20:18:00,
2013-02-13 15:23:00,80.3,72.1,29.91,SSE,156,12.0,18.0,76,0.00,,SKC,0.00,VWS V14.01,2013-02-13 20:23:00,
2013-02-13 15:28:00,80.2,71.9,29.91,South,188,7.0,18.0,76,0.00,,SKC,0.00,VWS V14.01,2013-02-13 20:28:00,
2013-02-13 15:33:00,80.1,71.9,29.91,SSW,198,8.0,15.0,76,0.00,,SKC,0.00,VWS V14.01,2013-02-13 20:33:00,
2013-02-13 15:38:00,80.0,72.2,29.91,WSW,248,5.0,15.0,77,0.00,,SKC,0.00,VWS V14.01,2013-02-13 20:38:00,
2013-02-13 15:43:00,80.1,71.9,29.91,SW,225,9.0,15.0,76,0.00,,SKC,0.00,VWS V14.01,2013-02-13 20:43:00,
2013-02-13 15:48:00,80.2,72.3,29.91,SSW,194,5.0,15.0,77,0.00,,SKC,0.00,VWS V14.01,2013-02-13 20:48:00,
2013-02-13 15:53:00,80.0,71.8,29.91,SSW,194,10.0,15.0,76,0.00,,SKC,0.00,VWS V14.01,2013-02-13 20:53:00,
2013-02-13 15:58:00,79.6,71.8,29.91,SSW,213,8.0,16.0,77,0.00,,SKC,0.00,VWS V14.01,2013-02-13 20:58:00,
2013-02-13 16:03:00,79.3,71.8,29.91,SE,137,7.0,15.0,78,0.00,,SKC,0.00,VWS V14.01,2013-02-13 21:03:00,
2013-02-13 16:08:00,79.3,71.8,29.91,SW,215,5.0,15.0,78,0.00,,SKC,0.00,VWS V14.01,2013-02-13 21:08:00,
2013-02-13 16:13:00,79.3,71.8,29.91,SSE,163,5.0,15.0,78,0.00,,SKC,0.00,VWS V14.01,2013-02-13 21:13:00,
2013-02-13 16:18:00,79.4,71.6,29.91,South,178,11.0,15.0,77,0.00,,SKC,0.00,VWS V14.01,2013-02-13 21:18:00,
2013-02-13 16:23:00,79.4,71.9,29.91,WSW,237,15.0,15.0,78,0.00,,SKC,0.00,VWS V14.01,2013-02-13 21:23:00,
2013-02-13 16:28:00,79.2,72.1,29.91,SSW,198,7.0,15.0,79,0.00,,SKC,0.00,VWS V14.01,2013-02-13 21:28:00,
2013-02-13 16:33:00,79.1,72.0,29.91,SSW,198,7.0,13.0,79,0.00,,SKC,0.00,VWS V14.01,2013-02-13 21:33:00,
2013-02-13 16:38:00,79.2,72.1,29.91,South,184,6.0,18.0,79,0.00,,SKC,0.00,VWS V14.01,2013-02-13 21:38:00,
2013-02-13 16:43:00,79.3,71.8,29.91,SSW,213,6.0,18.0,78,0.00,,SKC,0.00,VWS V14.01,2013-02-13 21:43:00,
2013-02-13 16:48:00,79.0,71.9,29.91,WSW,256,7.0,18.0,79,0.00,,SKC,0.00,VWS V14.01,2013-02-13 21:48:00,
2013-02-13 16:53:00,78.9,71.8,29.91,SSE,163,8.0,18.0,79,0.00,,SKC,0.00,VWS V14.01,2013-02-13 21:53:00,
2013-02-13 16:58:00,78.9,71.8,29.91,WSW,246,8.0,18.0,79,0.00,,SKC,0.00,VWS V14.01,2013-02-13 21:58:00,
2013-02-13 17:03:00,78.8,71.7,29.91,SE,125,12.0,13.0,79,0.00,,SKC,0.00,VWS V14.01,2013-02-13 22:03:00,
2013-02-13 17:08:00,78.5,71.8,29.91,SSE,150,7.0,13.0,80,0.00,,SKC,0.00,VWS V14.01,2013-02-13 22:08:00,
2013-02-13 17:13:00,78.4,71.7,29.91,SSW,207,7.0,15.0,80,0.00,,SKC,0.00,VWS V14.01,2013-02-13 22:13:00,
2013-02-13 17:18:00,78.3,71.6,29.91,SE,130,2.0,15.0,80,0.00,,SKC,0.00,VWS V14.01,2013-02-13 22:18:00,
2013-02-13 17:23:00,78.2,71.9,29.91,WSW,243,9.0,15.0,81,0.00,,SKC,0.00,VWS V14.01,2013-02-13 22:23:00,
2013-02-13 17:28:00,78.0,71.7,29.91,South,188,7.0,15.0,81,0.00,,SKC,0.00,VWS V14.01,2013-02-13 22:28:00,
2013-02-13 17:33:00,77.8,71.9,29.91,South,181,4.0,9.0,82,0.00,,SKC,0.00,VWS V14.01,2013-02-13 22:33:00,
2013-02-13 17:38:00,77.6,71.7,29.91,SW,214,10.0,11.0,82,0.00,,SKC,0.00,VWS V14.01,2013-02-13 22:38:00,
2013-02-13 17:43:00,77.4,71.5,29.91,SW,219,5.0,14.0,82,0.00,,SKC,0.00,VWS V14.01,2013-02-13 22:43:00,
2013-02-13 17:48:00,77.2,71.6,29.91,South,191,4.0,14.0,83,0.00,,SKC,0.00,VWS V14.01,2013-02-13 22:48:00,
2013-02-13 17:53:00,77.0,71.4,29.91,SSW,198,5.0,14.0,83,0.00,,SKC,0.00,VWS V14.01,2013-02-13 22:53:00,
2013-02-13 17:58:00,76.8,71.6,29.91,SW,223,7.0,14.0,84,0.00,,SKC,0.00,VWS V14.01,2013-02-13 22:58:00,
2013-02-13 18:03:00,76.5,71.3,29.91,SW,215,12.0,12.0,84,0.00,,SKC,0.00,VWS V14.01,2013-02-13 23:03:00,
2013-02-13 18:08:00,76.1,71.3,29.91,SSE,156,9.0,14.0,85,0.00,,SKC,0.00,VWS V14.01,2013-02-13 23:08:00,
2013-02-13 18:13:00,75.8,71.3,29.91,SSW,202,7.0,14.0,86,0.00,,SKC,0.00,VWS V14.01,2013-02-13 23:13:00,
2013-02-13 18:18:00,75.5,71.0,29.91,SSW,195,2.0,14.0,86,0.00,,SKC,0.00,VWS V14.01,2013-02-13 23:18:00,
2013-02-13 18:23:00,75.2,71.1,29.91,WSW,240,2.0,14.0,87,0.00,,SKC,0.00,VWS V14.01,2013-02-13 23:23:00,
2013-02-13 18:28:00,75.0,71.2,29.91,SSW,203,4.0,14.0,88,0.00,,SKC,0.00,VWS V14.01,2013-02-13 23:28:00,
2013-02-13 18:33:00,74.8,71.0,29.91,SW,221,8.0,11.0,88,0.00,,SKC,0.00,VWS V14.01,2013-02-13 23:33:00,
2013-02-13 18:38:00,74.6,70.8,29.91,South,186,2.0,11.0,88,0.00,,SKC,0.00,VWS V14.01,2013-02-13 23:38:00,
2013-02-13 18:43:00,74.5,70.7,29.91,SSE,156,4.0,11.0,88,0.00,,SKC,0.00,VWS V14.01,2013-02-13 23:43:00,
2013-02-13 18:48:00,74.4,70.9,29.91,SSW,202,7.0,12.0,89,0.00,,SKC,0.00,VWS V14.01,2013-02-13 23:48:00,
2013-02-13 18:53:00,74.4,70.9,29.91,SSW,206,5.0,12.0,89,0.00,,SKC,0.00,VWS V14.01,2013-02-13 23:53:00,
2013-02-13 18:58:00,74.3,70.8,29.91,SSW,200,5.0,12.0,89,0.00,,SKC,0.00,VWS V14.01,2013-02-13 23:58:00,
2013-02-13 19:03:00,74.2,70.8,29.91,South,180,3.0,7.0,89,0.00,,SKC,0.00,VWS V14.01,2013-02-14 00:03:00,
2013-02-13 19:08:00,74.1,70.7,29.91,SSE,161,2.0,8.0,89,0.00,,SKC,0.00,VWS V14.01,2013-02-14 00:08:00,
2013-02-13 19:13:00,74.1,70.7,29.90,South,178,2.0,8.0,89,0.00,,SKC,0.00,VWS V14.01,2013-02-14 00:13:00,
2013-02-13 19:18:00,74.0,70.9,29.91,SSW,192,4.0,11.0,90,0.00,,SKC,0.00,VWS V14.01,2013-02-14 00:18:00,
2013-02-13 19:23:00,74.0,70.9,29.91,South,186,4.0,11.0,90,0.00,,SKC,0.00,VWS V14.01,2013-02-14 00:23:00,
2013-02-13 19:28:00,74.0,70.9,29.91,SSW,206,5.0,11.0,90,0.00,,SKC,0.00,VWS V14.01,2013-02-14 00:28:00,
2013-02-13 19:33:00,74.0,70.9,29.91,SSW,210,7.0,8.0,90,0.00,,SKC,0.00,VWS V14.01,2013-02-14 00:33:00,
2013-02-13 19:38:00,73.9,70.8,29.91,SW,219,4.0,9.0,90,0.00,,SKC,0.00,VWS V14.01,2013-02-14 00:38:00,
2013-02-13 19:43:00,73.9,70.8,29.91,SSW,211,4.0,9.0,90,0.00,,SKC,0.00,VWS V14.01,2013-02-14 00:43:00,
2013-02-13 19:48:00,73.9,70.8,29.92,SW,222,6.0,9.0,90,0.00,,SKC,0.00,VWS V14.01,2013-02-14 00:48:00,
2013-02-13 19:53:00,73.8,70.7,29.92,SSE,164,6.0,9.0,90,0.00,,SKC,0.00,VWS V14.01,2013-02-14 00:53:00,
2013-02-13 19:58:00,73.8,70.7,29.92,South,188,2.0,9.0,90,0.00,,SKC,0.00,VWS V14.01,2013-02-14 00:58:00,
2013-02-13 20:03:00,73.8,71.0,29.92,SW,232,8.0,9.0,91,0.00,,SKC,0.00,VWS V14.01,2013-02-14 01:03:00,
2013-02-13 20:08:00,73.8,71.0,29.92,SW,218,1.0,9.0,91,0.00,,SKC,0.00,VWS V14.01,2013-02-14 01:08:00,
2013-02-13 20:13:00,73.7,70.9,29.92,SSE,155,4.0,9.0,91,0.00,,SKC,0.00,VWS V14.01,2013-02-14 01:13:00,
2013-02-13 20:18:00,73.7,70.9,29.92,SSW,206,1.0,9.0,91,0.00,,SKC,0.00,VWS V14.01,2013-02-14 01:18:00,
2013-02-13 20:23:00,73.7,70.9,29.92,SW,220,5.0,9.0,91,0.00,,SKC,0.00,VWS V14.01,2013-02-14 01:23:00,
2013-02-13 20:28:00,73.7,70.9,29.93,South,184,6.0,9.0,91,0.00,,SKC,0.00,VWS V14.01,2013-02-14 01:28:00,
2013-02-13 20:33:00,73.6,70.8,29.93,ESE,109,2.0,6.0,91,0.00,,SKC,0.00,VWS V14.01,2013-02-14 01:33:00,
2013-02-13 20:38:00,73.6,70.8,29.93,SW,214,3.0,7.0,91,0.00,,SKC,0.00,VWS V14.01,2013-02-14 01:38:00,
2013-02-13 20:43:00,73.6,70.8,29.93,SW,225,6.0,8.0,91,0.00,,SKC,0.00,VWS V14.01,2013-02-14 01:43:00,
2013-02-13 20:48:00,73.6,70.8,29.93,SSW,213,6.0,8.0,91,0.00,,SKC,0.00,VWS V14.01,2013-02-14 01:48:00,
2013-02-13 20:53:00,73.6,71.1,29.93,South,187,3.0,11.0,92,0.00,,SKC,0.00,VWS V14.01,2013-02-14 01:53:00,
2013-02-13 20:58:00,73.6,71.1,29.93,SSE,157,7.0,11.0,92,0.00,,SKC,0.00,VWS V14.01,2013-02-14 01:58:00,
2013-02-13 21:03:00,73.6,71.1,29.93,SW,217,3.0,7.0,92,0.00,,SKC,0.00,VWS V14.01,2013-02-14 02:03:00,
2013-02-13 21:08:00,73.5,71.0,29.93,South,191,1.0,7.0,92,0.00,,SKC,0.00,VWS V14.01,2013-02-14 02:08:00,
2013-02-13 21:13:00,73.5,71.0,29.94,SSW,203,2.0,8.0,92,0.00,,SKC,0.00,VWS V14.01,2013-02-14 02:13:00,
2013-02-13 21:18:00,73.5,71.0,29.93,SSE,155,6.0,9.0,92,0.00,,SKC,0.00,VWS V14.01,2013-02-14 02:18:00,
2013-02-13 21:23:00,73.5,71.0,29.93,WSW,249,2.0,9.0,92,0.00,,SKC,0.00,VWS V14.01,2013-02-14 02:23:00,
2013-02-13 21:28:00,73.5,71.0,29.93,SSW,199,3.0,9.0,92,0.00,,SKC,0.00,VWS V14.01,2013-02-14 02:28:00,
2013-02-13 21:33:00,73.4,70.9,29.93,SSW,209,8.0,9.0,92,0.00,,SKC,0.00,VWS V14.01,2013-02-14 02:33:00,
2013-02-13 21:38:00,73.4,70.9,29.93,SSE,167,9.0,9.0,92,0.00,,SKC,0.00,VWS V14.01,2013-02-14 02:38:00,
2013-02-13 21:43:00,73.4,70.9,29.93,SSW,204,6.0,9.0,92,0.00,,SKC,0.00,VWS V14.01,2013-02-14 02:43:00,
2013-02-13 21:48:00,73.3,70.8,29.93,WSW,241,5.0,9.0,92,0.00,,SKC,0.00,VWS V14.01,2013-02-14 02:48:00,
2013-02-13 21:53:00,73.3,70.8,29.93,SE,146,4.0,9.0,92,0.00,,SKC,0.00,VWS V14.01,2013-02-14 02:53:00,
2013-02-13 21:58:00,73.2,70.7,29.93,SSW,199,5.0,9.0,92,0.00,,SKC,0.00,VWS V14.01,2013-02-14 02:58:00,
2013-02-13 22:03:00,73.2,70.7,29.93,SSW,210,3.0,9.0,92,0.00,,SKC,0.00,VWS V14.01,2013-02-14 03:03:00,
2013-02-13 22:08:00,73.2,70.7,29.93,SSW,194,5.0,10.0,92,0.00,,SKC,0.00,VWS V14.01,2013-02-14 03:08:00,
2013-02-13 22:13:00,73.2,70.7,29.93,SSW,199,6.0,11.0,92,0.00,,SKC,0.00,VWS V14.01,2013-02-14 03:13:00,
2013-02-13 22:18:00,73.2,70.7,29.93,SW,225,8.0,11.0,92,0.00,,SKC,0.00,VWS V14.01,2013-02-14 03:18:00,
2013-02-13 22:23:00,73.2,70.7,29.93,South,176,6.0,11.0,92,0.00,,SKC,0.00,VWS V14.01,2013-02-14 03:23:00,
2013-02-13 22:28:00,73.3,70.5,29.94,South,186,2.0,11.0,91,0.00,,SKC,0.00,VWS V14.01,2013-02-14 03:28:00,
2013-02-13 22:33:00,73.3,70.5,29.94,SSW,202,3.0,8.0,91,0.00,,SKC,0.00,VWS V14.01,2013-02-14 03:33:00,
2013-02-13 22:38:00,73.3,70.5,29.94,SSW,198,2.0,9.0,91,0.00,,SKC,0.00,VWS V14.01,2013-02-14 03:38:00,
2013-02-13 22:43:00,73.2,70.4,29.94,SSE,159,3.0,9.0,91,0.00,,SKC,0.00,VWS V14.01,2013-02-14 03:43:00,
2013-02-13 22:48:00,73.2,70.4,29.94,SW,227,4.0,9.0,91,0.00,,SKC,0.00,VWS V14.01,2013-02-14 03:48:00,
2013-02-13 22:53:00,73.1,70.3,29.93,SSE,159,2.0,9.0,91,0.00,,SKC,0.00,VWS V14.01,2013-02-14 03:53:00,
2013-02-13 22:58:00,73.1,70.3,29.93,SSW,194,1.0,9.0,91,0.00,,SKC,0.00,VWS V14.01,2013-02-14 03:58:00,
2013-02-13 23:03:00,73.0,70.2,29.94,SSW,209,4.0,5.0,91,0.00,,SKC,0.00,VWS V14.01,2013-02-14 04:03:00,
2013-02-13 23:08:00,72.9,70.1,29.94,SW,226,1.0,6.0,91,0.00,,SKC,0.00,VWS V14.01,2013-02-14 04:08:00,
2013-02-13 23:13:00,72.8,70.0,29.94,West,259,0.0,6.0,91,0.00,,SKC,0.00,VWS V14.01,2013-02-14 04:13:00,
2013-02-13 23:18:00,72.8,70.0,29.94,NW,306,2.0,6.0,91,0.00,,SKC,0.00,VWS V14.01,2013-02-14 04:18:00,
2013-02-13 23:23:00,72.7,69.9,29.94,WNW,302,0.0,6.0,91,0.00,,SKC,0.00,VWS V14.01,2013-02-14 04:23:00,
2013-02-13 23:28:00,72.6,70.2,29.94,North,350,0.0,6.0,92,0.00,,SKC,0.00,VWS V14.01,2013-02-14 04:28:00,
2013-02-13 23:33:00,72.6,70.2,29.94,SW,226,1.0,2.0,92,0.00,,SKC,0.00,VWS V14.01,2013-02-14 04:33:00,
2013-02-13 23:38:00,72.6,70.2,29.94,SW,225,1.0,2.0,92,0.00,,SKC,0.00,VWS V14.01,2013-02-14 04:38:00,
2013-02-13 23:43:00,72.7,70.2,29.95,WNW,283,1.0,2.0,92,0.00,,SKC,0.00,VWS V14.01,2013-02-14 04:43:00,
2013-02-13 23:48:00,72.8,70.3,29.95,WNW,289,1.0,4.0,92,0.00,,SKC,0.00,VWS V14.01,2013-02-14 04:48:00,
2013-02-13 23:53:00,72.8,70.3,29.94,West,259,0.0,4.0,92,0.00,,SKC,0.00,VWS V14.01,2013-02-14 04:53:00,
2013-02-13 23:58:00,72.9,70.4,29.95,WSW,253,0.0,4.0,92,0.00,,SKC,0.00,VWS V14.01,2013-02-14 04:58:00,